This is the latest recevied weather packets stored in our database for station/object VK4TOM-13. If no packets are shown the sender has not sent any weather packets the latest 10 day(s).
| Time | Temp. | Humidity | Pressure | Rain* | Wind** | Luminosity | Snow |
|---|---|---|---|---|---|---|---|
| 1788409645 | 34.44° C | 30% | 1018.4 hPa | 0 mm | - | - | - |
| 1788409044 | 33.89° C | 30% | 1018.7 hPa | 0 mm | - | - | - |
| 1788407843 | 33.89° C | 34% | 1019.1 hPa | 0 mm | - | - | - |
| 1788407242 | 33.89° C | 35% | 1019.1 hPa | 0 mm | - | - | - |
| 1788407051 | 33.89° C | 35% | 1019.2 hPa | 0 mm | - | - | - |
| 1788406584 | 33.33° C | 37% | 1019.4 hPa | 0 mm | - | - | - |
| 1788405983 | 33.33° C | 40% | 1019.6 hPa | 0 mm | - | - | - |
| 1788404180 | 32.22° C | 47% | 1020 hPa | 0 mm | - | - | - |
| 1788393360 | 25° C | 70% | 1023.7 hPa | 0 mm | - | - | - |
| 1788391558 | 23.89° C | 70% | 1024.1 hPa | 0 mm | - | - | - |
| 1788390355 | 22.78° C | 70% | 1024.2 hPa | 0 mm | - | - | - |
| 1788389754 | 22.22° C | 70% | 1024.1 hPa | 0 mm | - | - | - |
| 1788389153 | 21.11° C | 70% | 1024.1 hPa | 0 mm | - | - | - |
| 1788388552 | 20.56° C | 70% | 1024.1 hPa | 0 mm | - | - | - |
| 1788387951 | 19.44° C | 70% | 1024.2 hPa | 0 mm | - | - | - |
| 1788387350 | 18.89° C | 70% | 1024.1 hPa | 0 mm | - | - | - |
| 1788386749 | 17.78° C | 70% | 1024.2 hPa | 0 mm | - | - | - |
| 1788386148 | 16.67° C | 70% | 1024.1 hPa | 0 mm | - | - | - |
| 1788385547 | 16.11° C | 70% | 1024 hPa | 0 mm | - | - | - |
| 1788384946 | 15.56° C | 70% | 1024 hPa | 0 mm | - | - | - |
| 1788384345 | 15° C | 70% | 1023.7 hPa | 0 mm | - | - | - |
| 1788383743 | 15° C | 70% | 1023.7 hPa | 0 mm | - | - | - |
| 1788383142 | 14.44° C | 70% | 1023.5 hPa | 0 mm | - | - | - |
| 1788382567 | 13.89° C | 70% | 1023.2 hPa | 0 mm | - | - | - |
| 1788381940 | 13.89° C | 70% | 1023.1 hPa | 0 mm | - | - | - |
* Rain since midnight (hover to see other rain measurements)
** Current wind speed in m/s (hover to see current wind gust speed)